KA4JMC Weather Reports


Display with metric or nautical units.
time (UTC)temp
F
wind
direction
speed
MPH
gust
MPH
rain 1hr
in
rain 24hr
in
rain mn
in
humidity
%
barometer
mb
20260903202023 84 353 0.0 0.0 0.00 0.00 0.00 1013.2
20260903201523 83 353 0.0 0.0 0.00 0.00 0.00 1013.2
20260903201023 83 353 0.0 0.0 0.00 0.00 0.00 1013.2
20260903200522 84 338 0.0 0.0 0.00 0.00 0.00 1014.2
20260903200055 84 338 0.0 0.0 0.00 0.00 0.00 1014.2
20260903195522 84 338 0.0 0.0 0.00 0.00 0.00 1014.2
20260903195022 84 338 0.0 0.0 0.00 0.00 0.00 1014.2
20260903194523 84 338 0.0 0.0 0.00 0.00 0.00 1014.2
20260903194022 84 338 0.0 0.0 0.00 0.00 0.00 1014.2
20260903193522 84 303 0.0 0.0 0.00 0.00 0.00 1014.2
20260903193022 84 245 0.0 0.0 0.00 0.00 0.00 1014.2
20260903192522 84 246 0.0 0.0 0.00 0.00 0.00 1014.2
20260903192022 84 199 0.0 0.0 0.00 0.00 0.00 1014.2
20260903191522 83 188 0.0 0.0 0.00 0.00 0.00 1014.2
20260903191023 83 151 0.0 0.0 0.00 0.00 0.00 1014.2
20260903190523 83 217 0.0 0.0 0.00 0.00 0.00 1014.2
20260903190023 82 167 0.0 0.0 0.00 0.00 0.00 1014.2
20260903185529 82 229 0.0 0.0 0.00 0.00 0.00 1014.2
20260903185023 82 175 0.0 0.0 0.00 0.00 0.00 1014.2
20260903184528 81 212 0.0 0.0 0.00 0.00 0.00 1014.2
20260903184022 81 212 0.0 0.0 0.00 0.00 0.00 1014.2
20260903183523 81 212 0.0 0.0 0.00 0.00 0.00 1014.2
20260903183024 80 53 0.0 0.0 0.00 0.00 0.00 1014.2
20260903182523 81 53 0.0 0.0 0.00 0.00 0.00 1014.2
20260903182022 80 53 0.0 0.0 0.00 0.00 0.00 1014.2
20260903181523 80 53 0.0 0.0 0.00 0.00 0.00 1014.2
20260903181022 79 53 0.0 0.0 0.00 0.00 0.00 1014.2
20260903180531 78 53 0.0 0.0 0.00 0.00 0.00 1015.2
20260903180023 78 53 0.0 0.0 0.00 0.00 0.00 1015.2
20260903175523 77 53 0.0 0.0 0.00 0.00 0.00 1015.2
20260903175043 77 6 0.0 0.0 0.00 0.00 0.00 1015.2
20260903174523 77 6 0.0 0.0 0.00 0.00 0.00 1015.2
20260903174024 76 339 0.0 0.0 0.00 0.00 0.00 1015.2
20260903173528 76 58 0.0 0.0 0.00 0.00 0.00 1015.2
20260903173024 76 337 0.0 0.0 0.00 0.00 0.00 1015.2
20260903172526 76 295 0.0 4.0 0.00 0.00 0.00 1015.2
20260903172023 75 43 0.0 0.0 0.00 0.00 0.00 1015.2
20260903171524 75 349 0.0 2.0 0.00 0.00 0.00 1015.2
20260903171021 73 76 0.0 0.0 0.00 0.00 0.00 1015.2
20260903170523 73 353 0.0 0.0 0.00 0.00 0.00 1016.2
20260903170024 73 17 0.0 0.0 0.00 0.00 0.00 1016.2
20260903165523 73 17 0.0 0.0 0.00 0.00 0.00 1016.2
20260903165022 73 318 0.0 0.0 0.00 0.00 0.00 1016.2
20260903164522 74 36 0.0 2.0 0.00 0.00 0.00 1016.2
20260903164022 74 61 0.0 0.0 0.00 0.00 0.00 1016.2
20260903163523 74 0 0.0 4.0 0.00 0.00 0.00 1016.2
20260903163024 74 326 0.0 3.0 0.00 0.00 0.00 1016.2
20260903162523 74 56 0.0 0.0 0.00 0.00 0.00 1016.2
20260903162023 74 320 0.0 0.0 0.00 0.00 0.00 1016.2
20260903161522 74 346 0.0 0.0 0.00 0.00 0.00 1016.2
20260903161043 74 63 4.0 2.0 0.00 0.00 0.00 1016.2
20260903160523 74 308 0.0 2.0 0.00 0.00 0.00 1016.2
20260903160024 75 45 0.0 0.0 0.00 0.00 0.00 1016.2
20260903155544 76 357 0.0 0.0 0.00 0.00 0.00 1016.2
20260903155023 77 291 5.0 5.0 0.00 0.00 0.00 1015.2
20260903154522 79 317 3.0 3.0 0.00 0.00 0.00 1015.2
20260903154022 80 288 3.0 0.0 0.00 0.00 0.00 1015.2
20260903153523 80 348 0.0 0.0 0.00 0.00 0.00 1015.2
20260903153023 81 246 0.0 0.0 0.00 0.00 0.00 1015.2
20260903152522 81 10 0.0 0.0 0.00 0.00 0.00 1015.2
20260903152023 81 68 0.0 0.0 0.00 0.00 0.00 1015.2
20260903151527 81 303 0.0 0.0 0.00 0.00 0.00 1015.2
20260903151023 82 305 0.0 0.0 0.00 0.00 0.00 1015.2
20260903150523 82 357 2.0 4.0 0.00 0.00 0.00 1014.2
20260903150022 82 324 0.0 0.0 0.00 0.00 0.00 1014.2
20260903145523 82 315 0.0 0.0 0.00 0.00 0.00 1014.2
20260903145049 82 315 0.0 0.0 0.00 0.00 0.00 1014.2
20260903144525 83 315 0.0 0.0 0.00 0.00 0.00 1014.2
20260903144023 83 161 0.0 0.0 0.00 0.00 0.00 1014.2
20260903143524 82 212 0.0 0.0 0.00 0.00 0.00 1014.2
20260903143024 82 237 0.0 0.0 0.00 0.00 0.00 1014.2
20260903142524 82 237 0.0 0.0 0.00 0.00 0.00 1014.2
20260903142023 82 235 0.0 0.0 0.00 0.00 0.00 1014.2
20260903141523 82 210 0.0 0.0 0.00 0.00 0.00 1014.2
20260903141023 82 211 0.0 0.0 0.00 0.00 0.00 1014.2
20260903140528 82 213 0.0 0.0 0.00 0.00 0.00 1014.2
20260903140023 82 197 0.0 2.0 0.00 0.00 0.00 1014.2
20260903135525 82 200 0.0 0.0 0.00 0.00 0.00 1014.2
20260903135043 82 219 0.0 3.0 0.00 0.00 0.00 1014.2
20260903134523 83 231 0.0 3.0 0.00 0.00 0.00 1014.2
20260903134023 83 166 0.0 4.0 0.00 0.00 0.00 1014.2
20260903133536 83 238 0.0 3.0 0.00 0.00 0.00 1014.2
20260903133025 82 239 3.0 0.0 0.00 0.00 0.00 1014.2
20260903132522 82 221 0.0 0.0 0.00 0.00 0.00 1014.2
20260903132022 81 227 2.0 5.0 0.00 0.00 0.00 1014.2
20260903131523 81 214 0.0 0.0 0.00 0.00 0.00 1014.2
20260903131023 80 225 0.0 2.0 0.00 0.00 0.00 1014.2
20260903130523 80 238 0.0 0.0 0.00 0.00 0.00 1014.2
20260903130023 79 203 0.0 0.0 0.00 0.00 0.00 1014.2
20260903125522 79 185 2.0 0.0 0.00 0.00 0.00 1014.2
20260903125022 78 190 0.0 3.0 0.00 0.00 0.00 1014.2
20260903124523 78 206 0.0 3.0 0.00 0.00 0.00 1014.2
20260903124023 77 208 0.0 0.0 0.00 0.00 0.00 1014.2
20260903123522 77 209 0.0 0.0 0.00 0.00 0.00 1014.2
20260903123023 77 223 0.0 3.0 0.00 0.00 0.00 1014.2
20260903122522 76 234 0.0 0.0 0.00 0.00 0.00 1014.2
20260903122022 76 204 0.0 0.0 0.00 0.00 0.00 1014.2
20260903121523 76 187 0.0 0.0 0.00 0.00 0.00 1014.2
20260903121022 76 196 0.0 0.0 0.00 0.00 0.00 1014.2
20260903120543 76 220 0.0 0.0 0.00 0.00 0.00 1014.2
20260903120024 76 205 0.0 0.0 0.00 0.00 0.00 1014.2
20260903115523 76 191 0.0 4.0 0.00 0.00 0.00 1014.2
20260903115022 75 199 0.0 0.0 0.00 0.00 0.00 1014.2
20260903114527 75 205 0.0 0.0 0.00 0.00 0.00 1014.2
20260903114033 75 204 0.0 0.0 0.00 0.00 0.00 1014.2
20260903113527 75 236 0.0 0.0 0.00 0.00 0.00 1014.2
20260903113031 76 240 0.0 0.0 0.00 0.00 0.00 1014.2
20260903112523 76 194 0.0 0.0 0.00 0.00 0.00 1014.2
20260903112025 76 179 0.0 0.0 0.00 0.00 0.00 1014.2
20260903111522 76 189 0.0 0.0 0.00 0.00 0.00 1014.2
20260903111027 76 182 0.0 0.0 0.00 0.00 0.00 1014.2
20260903110523 76 175 0.0 0.0 0.00 0.00 0.00 1014.2
20260903110046 76 200 0.0 2.0 0.00 0.00 0.00 1014.2
20260903105549 76 232 0.0 0.0 0.00 0.00 0.00 1014.2
20260903105044 75 199 0.0 0.0 0.00 0.00 0.00 1014.2
20260903104529 75 193 0.0 0.0 0.00 0.00 0.00 1014.2
20260903104022 75 241 0.0 0.0 0.00 0.00 0.00 1014.2
20260903103523 75 241 0.0 0.0 0.00 0.00 0.00 1014.2
20260903103032 75 241 0.0 0.0 0.00 0.00 0.00 1014.2
20260903102525 75 241 0.0 0.0 0.00 0.00 0.00 1014.2
20260903102024 75 241 0.0 0.0 0.00 0.00 0.00 1014.2
20260903101523 75 241 0.0 0.0 0.00 0.00 0.00 1014.2
20260903101022 75 241 0.0 0.0 0.00 0.00 0.00 1014.2
20260903100522 75 241 0.0 0.0 0.00 0.00 0.00 1014.2
20260903100028 75 241 0.0 0.0 0.00 0.00 0.00 1014.2
20260903095543 75 241 0.0 0.0 0.00 0.00 0.00 1014.2
20260903095023 75 241 0.0 0.0 0.00 0.00 0.00 1014.2
20260903094522 75 241 0.0 0.0 0.00 0.00 0.00 1014.2
20260903094023 75 241 0.0 0.0 0.00 0.00 0.00 1014.2
20260903093523 75 241 0.0 0.0 0.00 0.00 0.00 1014.2
20260903093023 76 241 0.0 0.0 0.00 0.00 0.00 1014.2
20260903092522 76 241 0.0 0.0 0.00 0.00 0.00 1014.2
20260903092023 76 241 0.0 0.0 0.00 0.00 0.00 1014.2
20260903091523 76 241 0.0 0.0 0.00 0.00 0.00 1014.2
20260903091022 76 241 0.0 0.0 0.00 0.00 0.00 1014.2
20260903090523 76 241 0.0 0.0 0.00 0.00 0.00 1014.2
20260903090024 76 241 0.0 0.0 0.00 0.00 0.00 1014.2
20260903085522 77 241 0.0 0.0 0.00 0.00 0.00 1014.2
20260903085043 77 241 0.0 0.0 0.00 0.00 0.00 1014.2
20260903084521 77 241 0.0 0.0 0.00 0.00 0.00 1014.2
20260903084023 77 241 0.0 0.0 0.00 0.00 0.00 1014.2
20260903083523 77 241 0.0 0.0 0.00 0.00 0.00 1014.2
20260903083024 77 241 0.0 0.0 0.00 0.00 0.00 1014.2
20260903082524 77 241 0.0 0.0 0.00 0.00 0.00 1014.2
20260903082022 77 241 0.0 0.0 0.00 0.00 0.00 1014.2
20260903081522 77 241 0.0 0.0 0.00 0.00 0.00 1014.2
20260903081027 77 241 0.0 0.0 0.00 0.00 0.00 1014.2
20260903080523 77 241 0.0 0.0 0.00 0.00 0.00 1013.2
20260903080031 77 241 0.0 0.0 0.00 0.00 0.00 1013.2
20260903075522 77 241 0.0 0.0 0.00 0.00 0.00 1013.2
20260903075029 76 241 0.0 0.0 0.00 0.00 0.00 1013.2
20260903074535 76 241 0.0 0.0 0.00 0.00 0.00 1013.2
20260903074023 77 241 0.0 0.0 0.00 0.00 0.00 1013.2
20260903073529 77 241 0.0 0.0 0.00 0.00 0.00 1013.2
20260903073044 77 241 0.0 0.0 0.00 0.00 0.00 1013.2
20260903072522 77 241 0.0 0.0 0.00 0.00 0.00 1013.2
20260903072023 77 241 0.0 0.0 0.00 0.00 0.00 1014.2
20260903071524 77 241 0.0 0.0 0.00 0.00 0.00 1014.2
20260903071022 77 241 0.0 0.0 0.00 0.00 0.00 1014.2
20260903070527 77 241 0.0 0.0 0.00 0.00 0.00 1014.2
20260903070028 77 241 0.0 0.0 0.00 0.00 0.00 1014.2
20260903065525 77 241 0.0 0.0 0.00 0.00 0.00 1014.2
20260903065030 77 241 0.0 0.0 0.00 0.00 0.00 1014.2
20260903064523 77 241 0.0 0.0 0.00 0.00 0.00 1014.2
20260903064022 78 241 0.0 0.0 0.00 0.00 0.00 1014.2
20260903063525 78 241 0.0 0.0 0.00 0.00 0.00 1014.2
20260903063025 78 241 0.0 0.0 0.00 0.00 0.00 1014.2
20260903062523 78 241 0.0 0.0 0.00 0.00 0.00 1014.2
20260903062022 78 241 0.0 0.0 0.00 0.00 0.00 1014.2
20260903061522 78 241 0.0 0.0 0.00 0.00 0.00 1014.2
20260903061022 78 241 0.0 0.0 0.00 0.00 0.00 1014.2
20260903060523 78 241 0.0 0.0 0.00 0.00 0.00 1014.2
20260903060023 78 241 0.0 0.0 0.00 0.00 0.00 1014.2
20260903055523 78 241 0.0 0.0 0.00 0.00 0.00 1014.2
20260903055023 78 241 0.0 0.0 0.00 0.00 0.00 1014.2
20260903054523 78 241 0.0 0.0 0.00 0.00 0.00 1014.2
20260903054023 78 241 0.0 0.0 0.00 0.00 0.00 1014.2
20260903053523 78 241 0.0 0.0 0.00 0.00 0.00 1014.2
20260903053023 78 241 0.0 0.0 0.00 0.00 0.00 1014.2
20260903052522 78 241 0.0 0.0 0.00 0.00 0.00 1014.2
20260903052022 79 224 0.0 0.0 0.00 0.00 0.00 1014.2
20260903051544 79 224 0.0 0.0 0.00 0.00 0.00 1014.2
20260903051023 79 225 0.0 0.0 0.00 0.00 0.00 1014.2
20260903050544 79 225 0.0 0.0 0.00 0.00 0.00 1014.2
20260903050026 79 225 0.0 0.0 0.00 0.00 0.00 1014.2
20260903045523 79 225 0.0 0.0 0.00 0.00 0.00 1014.2
20260903045044 79 240 0.0 0.0 0.00 0.00 0.00 1013.2
20260903044523 79 239 0.0 0.0 0.00 0.00 0.00 1013.2
20260903044022 79 240 0.0 0.0 0.00 0.00 0.00 1013.2
20260903043546 79 240 0.0 0.0 0.00 0.00 0.00 1013.2
20260903043025 79 240 0.0 0.0 0.00 0.00 0.00 1013.2
20260903042522 79 240 0.0 0.0 0.00 0.00 0.00 1013.2
20260903042047 79 240 0.0 0.0 0.00 0.00 0.00 1013.2
20260903041523 79 240 0.0 0.0 0.00 0.00 0.00 1013.2
20260903041025 79 240 0.0 0.0 0.00 0.00 0.00 1013.2
20260903040529 79 240 0.0 0.0 0.00 0.00 0.00 1013.2
20260903040054 79 240 0.0 0.0 0.00 0.00 0.00 1013.2
20260903035531 79 240 0.0 0.0 0.00 0.00 0.00 1013.2
20260903035023 79 240 0.0 0.0 0.00 0.00 0.00 1013.2
20260903034526 79 240 0.0 0.0 0.00 0.00 0.00 1013.2
20260903034023 79 240 0.0 0.0 0.00 0.00 0.00 1013.2
20260903033527 79 240 0.0 0.0 0.00 0.00 0.00 1013.2
20260903033023 79 240 0.0 0.0 0.00 0.00 0.00 1013.2
20260903032523 79 240 0.0 0.0 0.00 0.00 0.00 1013.2
20260903032027 79 240 0.0 0.0 0.00 0.00 0.00 1013.2
20260903031523 79 240 0.0 0.0 0.00 0.00 0.00 1013.2
20260903031028 79 240 0.0 0.0 0.00 0.00 0.00 1013.2
20260903030522 79 240 0.0 0.0 0.00 0.00 0.00 1013.2
20260903030037 79 240 0.0 0.0 0.00 0.00 0.00 1013.2
20260903025526 79 240 0.0 0.0 0.00 0.00 0.00 1013.2
20260903025026 79 240 0.0 0.0 0.00 0.00 0.00 1013.2
20260903024523 79 240 0.0 0.0 0.00 0.00 0.00 1013.2
20260903024023 79 240 0.0 0.0 0.00 0.00 0.00 1013.2
20260903023523 79 240 0.0 0.0 0.00 0.00 0.00 1013.2
20260903023023 79 240 0.0 0.0 0.00 0.00 0.00 1013.2
20260903022543 79 240 0.0 0.0 0.00 0.00 0.00 1013.2
20260903022022 79 240 0.0 0.0 0.00 0.00 0.00 1013.2
20260903021523 79 240 0.0 0.0 0.00 0.00 0.00 1013.2
20260903021023 79 240 0.0 0.0 0.00 0.00 0.00 1013.2
20260903020523 79 240 0.0 0.0 0.00 0.00 0.00 1013.2
20260903020029 79 240 0.0 0.0 0.00 0.00 0.00 1013.2
20260903015523 80 240 0.0 0.0 0.00 0.00 0.00 1013.2
20260903015023 80 240 0.0 0.0 0.00 0.00 0.00 1013.2
20260903014529 80 240 0.0 0.0 0.00 0.00 0.00 1013.2
20260903014023 80 240 0.0 0.0 0.00 0.00 0.00 1013.2
20260903013522 80 240 0.0 0.0 0.00 0.00 0.00 1013.2
20260903013023 80 240 0.0 0.0 0.00 0.00 0.00 1013.2
20260903012522 81 240 0.0 0.0 0.00 0.00 0.00 1013.2
20260903012022 81 240 0.0 0.0 0.00 0.00 0.00 1013.2
20260903011523 81 240 0.0 0.0 0.00 0.00 0.00 1013.2
20260903011022 81 240 0.0 0.0 0.00 0.00 0.00 1013.2
20260903010522 81 240 0.0 0.0 0.00 0.00 0.00 1012.2
20260903010031 81 240 0.0 0.0 0.00 0.00 0.00 1012.2
20260903005523 82 240 0.0 0.0 0.00 0.00 0.00 1012.2
20260903005023 82 240 0.0 0.0 0.00 0.00 0.00 1013.2
20260903004535 82 240 0.0 0.0 0.00 0.00 0.00 1013.2
20260903004028 83 240 0.0 0.0 0.00 0.00 0.00 1013.2
20260903003533 83 240 0.0 0.0 0.00 0.00 0.00 1013.2
20260903003023 83 240 0.0 0.0 0.00 0.00 0.00 1013.2
20260903002527 84 240 0.0 0.0 0.00 0.00 0.00 1013.2
20260903002023 84 240 0.0 0.0 0.00 0.00 0.00 1013.2
20260903001528 85 240 0.0 0.0 0.00 0.00 0.00 1013.2
20260903001032 85 240 0.0 0.0 0.00 0.00 0.00 1013.2
20260903000527 85 240 0.0 0.0 0.00 0.00 0.00 1013.2
20260903000034 85 240 0.0 0.0 0.00 0.00 0.00 1013.2
20260902235525 86 240 0.0 0.0 0.00 0.00 0.00 1013.2
20260902235025 86 200 0.0 0.0 0.00 0.00 0.00 1012.2
20260902234523 86 210 0.0 0.0 0.00 0.00 0.00 1012.2
20260902234023 87 219 0.0 0.0 0.00 0.00 0.00 1012.2
20260902233523 87 190 4.0 3.0 0.00 0.00 0.00 1012.2
20260902233024 87 223 0.0 0.0 0.00 0.00 0.00 1012.2
20260902232531 87 207 0.0 0.0 0.00 0.00 0.00 1012.2
20260902232026 87 221 0.0 3.0 0.00 0.00 0.00 1012.2
20260902231523 88 217 0.0 0.0 0.00 0.00 0.00 1012.2
20260902231023 88 163 0.0 3.0 0.00 0.00 0.00 1012.2
20260902230522 88 195 0.0 3.0 0.00 0.00 0.00 1012.2
20260902230023 88 208 0.0 0.0 0.00 0.00 0.00 1012.2
20260902225522 87 236 0.0 0.0 0.00 0.00 0.00 1012.2
20260902225023 87 203 2.0 0.0 0.00 0.00 0.00 1012.2
20260902224543 87 223 0.0 4.0 0.00 0.00 0.00 1012.2
20260902224023 87 241 0.0 0.0 0.00 0.00 0.00 1012.2
20260902223523 88 202 0.0 0.0 0.00 0.00 0.00 1012.2
20260902223024 88 245 2.0 2.0 0.00 0.00 0.00 1012.2
20260902222522 88 192 0.0 0.0 0.00 0.00 0.00 1012.2
20260902222023 88 187 0.0 4.0 0.00 0.00 0.00 1013.2
20260902221523 88 199 0.0 0.0 0.00 0.00 0.00 1013.2
20260902221023 88 246 0.0 0.0 0.00 0.00 0.00 1013.2
20260902220523 88 231 3.0 6.0 0.00 0.00 0.00 1013.2
20260902220022 88 238 3.0 2.0 0.00 0.00 0.00 1013.2
20260902215522 88 226 0.0 0.0 0.00 0.00 0.00 1013.2
20260902215044 88 185 2.0 4.0 0.00 0.00 0.00 1013.2
20260902214522 89 236 2.0 0.0 0.00 0.00 0.00 1013.2
20260902214044 89 229 3.0 5.0 0.00 0.00 0.00 1013.2
20260902213523 89 205 3.0 4.0 0.00 0.00 0.00 1013.2
20260902213040 90 163 0.0 6.0 0.00 0.00 0.00 1013.2
20260902212523 90 210 3.0 6.0 0.00 0.00 0.00 1013.2
20260902212044 90 205 0.0 3.0 0.00 0.00 0.00 1013.2
20260902211522 90 227 3.0 3.0 0.00 0.00 0.00 1013.2
20260902211023 90 209 3.0 4.0 0.00 0.00 0.00 1013.2
20260902210532 91 205 4.0 0.0 0.00 0.00 0.00 1013.2
20260902210026 91 228 0.0 2.0 0.00 0.00 0.00 1013.2
20260902205531 91 221 0.0 0.0 0.00 0.00 0.00 1013.2
20260902205024 91 171 4.0 2.0 0.00 0.00 0.00 1013.2
20260902204529 91 172 3.0 3.0 0.00 0.00 0.00 1013.2
20260902204035 91 202 3.0 3.0 0.00 0.00 0.00 1013.2
20260902203522 90 218 3.0 5.0 0.00 0.00 0.00 1013.2
20260902203029 90 209 4.0 3.0 0.00 0.00 0.00 1013.2
20260902202525 90 237 2.0 3.0 0.00 0.00 0.00 1013.2